Вернуться в каталог

SL-16 DEB

LostLEO
NORAD 39845·DEBRIS·🇷🇺 Russia

Запущен Dec 25, 1992 с Baikonur Cosmodrome

Loading…

Ближайшие Пролёты (ближайшие 24 часа)

TLE

УстаревшееSource: Space-Track

Эпоха: Jan 26, 2026, 14:36 UTC

1 39845U 92093KX  26026.60860949  .00002290  00000-0  11884-2 0  9997
2 39845  70.9806   8.2792 0123669 187.3713 172.5595 14.11947005135966

Отслеживайте SL-16 DEB в реальном времени с AllMySat

Download on the App Store